| time (UTC) | temp C | wind direction | speed KPH | gust KPH | rain 1hr cm | rain 24hr cm | rain mn cm | humidity % | barometer mb |
| 20260504130706 | 14 | 0 | 0.0 | 4.8 | 0.00 | 0.00 | 0.00 | 65 | 1008.0 |
| 20260504130308 | 13 | 252 | 1.6 | 4.8 | 0.00 | 0.00 | 0.00 | 68 | 1008.1 |
| 20260504130206 | 13 | 252 | 1.6 | 4.8 | 0.00 | 0.00 | 0.00 | 68 | 1007.9 |
| 20260504120308 | 10 | 224 | 9.7 | 11.3 | 0.00 | 0.00 | 0.00 | 72 | 1008.1 |
| 20260504120206 | 10 | 244 | 11.3 | 11.3 | 0.00 | 0.00 | 0.00 | 72 | 1008.1 |
| 20260504110706 | 6 | 0 | 0.0 | 1.6 | 0.00 | 0.00 | 0.00 | 77 | 1008.1 |
| 20260504110307 | 6 | 76 | 1.6 | 1.6 | 0.00 | 0.00 | 0.00 | 78 | 1008.3 |
| 20260504110206 | 6 | 0 | 0.0 | 1.6 | 0.00 | 0.00 | 0.00 | 77 | 1008.2 |
| 20260504100307 | 5 | 248 | 3.2 | 4.8 | 0.00 | 0.00 | 0.00 | 73 | 1008.4 |
| 20260504100206 | 5 | 241 | 3.2 | 4.8 | 0.00 | 0.00 | 0.00 | 74 | 1008.4 |
| 20260504081807 | 4 | 0 | 0.0 | 0.0 | 0.00 | 0.00 | 0.00 | 71 | 1008.3 |
| 20260504081706 | 4 | 0 | 0.0 | 0.0 | 0.00 | 0.00 | 0.00 | 71 | 1008.4 |
| 20260504081206 | 4 | 0 | 0.0 | 0.0 | 0.00 | 0.00 | 0.00 | 70 | 1008.3 |
| 20260504080706 | 4 | 0 | 0.0 | 0.0 | 0.00 | 0.00 | 0.00 | 70 | 1008.3 |
| 20260504080307 | 4 | 0 | 0.0 | 0.0 | 0.00 | 0.00 | 0.00 | 70 | 1008.2 |
| 20260504080206 | 4 | 0 | 0.0 | 0.0 | 0.00 | 0.00 | 0.00 | 70 | 1008.3 |
| 20260504070307 | 5 | 0 | 0.0 | 0.0 | 0.00 | 0.00 | 0.00 | 67 | 1008.3 |
| 20260504070206 | 5 | 0 | 0.0 | 0.0 | 0.00 | 0.00 | 0.00 | 67 | 1008.2 |
| 20260504060207 | 6 | 0 | 0.0 | 0.0 | 0.00 | 0.00 | 0.00 | 63 | 1008.2 |
| 20260504050707 | 6 | 0 | 0.0 | 1.6 | 0.00 | 0.00 | 0.00 | 65 | 1008.3 |
| 20260504050308 | 6 | 0 | 0.0 | 3.2 | 0.00 | 0.00 | 0.00 | 65 | 1008.2 |
| 20260504050207 | 6 | 0 | 0.0 | 3.2 | 0.00 | 0.00 | 0.00 | 65 | 1008.3 |
| 20260504045707 | 6 | 0 | 0.0 | 0.0 | 0.00 | 0.00 | 0.00 | 65 | 1008.2 |
| 20260504045207 | 6 | 0 | 0.0 | 0.0 | 0.00 | 0.00 | 0.00 | 65 | 1008.3 |
| 20260504044809 | 6 | 0 | 0.0 | 0.0 | 0.00 | 0.00 | 0.00 | 65 | 1008.3 |
| 20260504044707 | 6 | 0 | 0.0 | 0.0 | 0.00 | 0.00 | 0.00 | 65 | 1008.2 |
| 20260504044207 | 6 | 0 | 0.0 | 0.0 | 0.00 | 0.00 | 0.00 | 64 | 1008.2 |
| 20260504043707 | 6 | 0 | 0.0 | 0.0 | 0.00 | 0.00 | 0.00 | 64 | 1008.2 |
| 20260504043308 | 6 | 0 | 0.0 | 0.0 | 0.00 | 0.00 | 0.00 | 64 | 1008.1 |
| 20260504043207 | 6 | 0 | 0.0 | 0.0 | 0.00 | 0.00 | 0.00 | 64 | 1008.2 |
| 20260504042707 | 6 | 0 | 0.0 | 1.6 | 0.00 | 0.00 | 0.00 | 63 | 1008.2 |
| 20260504042207 | 6 | 0 | 0.0 | 1.6 | 0.00 | 0.00 | 0.00 | 64 | 1008.0 |
| 20260504041808 | 6 | 0 | 0.0 | 4.8 | 0.00 | 0.00 | 0.00 | 64 | 1007.9 |
| 20260504041707 | 6 | 236 | 3.2 | 4.8 | 0.00 | 0.00 | 0.00 | 65 | 1007.9 |
| 20260504041207 | 6 | 0 | 0.0 | 0.0 | 0.00 | 0.00 | 0.00 | 64 | 1007.9 |
| 20260504040706 | 6 | 0 | 0.0 | 0.0 | 0.00 | 0.00 | 0.00 | 63 | 1007.9 |
| 20260504040308 | 6 | 0 | 0.0 | 0.0 | 0.00 | 0.00 | 0.00 | 63 | 1007.9 |
| 20260504040207 | 6 | 0 | 0.0 | 0.0 | 0.00 | 0.00 | 0.00 | 63 | 1007.9 |
| 20260504035707 | 6 | 0 | 0.0 | 0.0 | 0.00 | 0.00 | 0.00 | 62 | 1007.9 |
| 20260504035206 | 7 | 0 | 0.0 | 0.0 | 0.00 | 0.00 | 0.00 | 61 | 1007.9 |
| 20260504034808 | 7 | 0 | 0.0 | 0.0 | 0.00 | 0.00 | 0.00 | 61 | 1007.9 |
| 20260504034706 | 7 | 0 | 0.0 | 0.0 | 0.00 | 0.00 | 0.00 | 61 | 1007.9 |
| 20260504034206 | 7 | 0 | 0.0 | 0.0 | 0.00 | 0.00 | 0.00 | 61 | 1007.8 |
| 20260504033706 | 7 | 0 | 0.0 | 0.0 | 0.00 | 0.00 | 0.00 | 60 | 1007.9 |
| 20260504033308 | 7 | 0 | 0.0 | 0.0 | 0.00 | 0.00 | 0.00 | 59 | 1008.0 |
| 20260504033206 | 7 | 0 | 0.0 | 0.0 | 0.00 | 0.00 | 0.00 | 59 | 1007.9 |
| 20260504032706 | 7 | 0 | 0.0 | 0.0 | 0.00 | 0.00 | 0.00 | 59 | 1007.9 |
| 20260504032206 | 7 | 0 | 0.0 | 0.0 | 0.00 | 0.00 | 0.00 | 59 | 1007.8 |
| 20260504031808 | 7 | 0 | 0.0 | 0.0 | 0.00 | 0.00 | 0.00 | 58 | 1007.8 |
| 20260504031706 | 7 | 0 | 0.0 | 0.0 | 0.00 | 0.00 | 0.00 | 58 | 1007.8 |
| 20260504031206 | 7 | 0 | 0.0 | 0.0 | 0.00 | 0.00 | 0.00 | 57 | 1007.7 |
| 20260504030706 | 8 | 0 | 0.0 | 0.0 | 0.00 | 0.00 | 0.00 | 57 | 1007.8 |
| 20260504030308 | 8 | 0 | 0.0 | 0.0 | 0.00 | 0.00 | 0.00 | 57 | 1007.8 |
| 20260504030206 | 8 | 0 | 0.0 | 0.0 | 0.00 | 0.00 | 0.00 | 57 | 1007.8 |
| 20260504025706 | 8 | 0 | 0.0 | 0.0 | 0.00 | 0.00 | 0.00 | 56 | 1007.8 |
| 20260504025206 | 8 | 0 | 0.0 | 1.6 | 0.00 | 0.00 | 0.00 | 55 | 1007.8 |
| 20260504024808 | 8 | 0 | 0.0 | 0.0 | 0.00 | 0.00 | 0.00 | 55 | 1007.8 |
| 20260504024706 | 8 | 0 | 0.0 | 0.0 | 0.00 | 0.00 | 0.00 | 55 | 1007.9 |
| 20260504024206 | 8 | 0 | 0.0 | 0.0 | 0.00 | 0.00 | 0.00 | 54 | 1007.9 |
| 20260504023706 | 8 | 0 | 0.0 | 0.0 | 0.00 | 0.00 | 0.00 | 54 | 1007.9 |
| 20260504023308 | 8 | 0 | 0.0 | 1.6 | 0.00 | 0.00 | 0.00 | 54 | 1008.0 |
| 20260504023206 | 8 | 0 | 0.0 | 1.6 | 0.00 | 0.00 | 0.00 | 54 | 1008.0 |
| 20260504022706 | 8 | 0 | 0.0 | 1.6 | 0.00 | 0.00 | 0.00 | 53 | 1007.9 |
| 20260504022206 | 9 | 0 | 0.0 | 1.6 | 0.00 | 0.00 | 0.00 | 53 | 1007.9 |
| 20260504021808 | 9 | 0 | 0.0 | 0.0 | 0.00 | 0.00 | 0.00 | 53 | 1007.9 |
| 20260504021706 | 9 | 0 | 0.0 | 0.0 | 0.00 | 0.00 | 0.00 | 53 | 1007.9 |
| 20260504021206 | 9 | 0 | 0.0 | 0.0 | 0.00 | 0.00 | 0.00 | 53 | 1007.9 |
| 20260504020706 | 9 | 0 | 0.0 | 0.0 | 0.00 | 0.00 | 0.00 | 52 | 1007.8 |
| 20260504020308 | 9 | 0 | 0.0 | 0.0 | 0.00 | 0.00 | 0.00 | 51 | 1007.7 |
| 20260504020206 | 9 | 0 | 0.0 | 0.0 | 0.00 | 0.00 | 0.00 | 51 | 1007.8 |
| 20260504015706 | 10 | 0 | 0.0 | 0.0 | 0.00 | 0.00 | 0.00 | 51 | 1007.8 |
| 20260504015206 | 10 | 0 | 0.0 | 0.0 | 0.00 | 0.00 | 0.00 | 51 | 1007.8 |
| 20260504014808 | 10 | 0 | 0.0 | 1.6 | 0.00 | 0.00 | 0.00 | 50 | 1007.7 |
| 20260504014706 | 10 | 0 | 0.0 | 1.6 | 0.00 | 0.00 | 0.00 | 51 | 1007.8 |
| 20260504014206 | 10 | 0 | 0.0 | 0.0 | 0.00 | 0.00 | 0.00 | 51 | 1007.8 |
| 20260504013706 | 10 | 0 | 0.0 | 0.0 | 0.00 | 0.00 | 0.00 | 49 | 1007.8 |
| 20260504013308 | 10 | 0 | 0.0 | 1.6 | 0.00 | 0.00 | 0.00 | 49 | 1007.7 |
| 20260504013206 | 10 | 0 | 0.0 | 1.6 | 0.00 | 0.00 | 0.00 | 49 | 1007.7 |
| 20260504012706 | 10 | 0 | 0.0 | 1.6 | 0.00 | 0.00 | 0.00 | 48 | 1007.7 |
| 20260504012206 | 10 | 0 | 0.0 | 1.6 | 0.00 | 0.00 | 0.00 | 48 | 1007.6 |
| 20260504011808 | 10 | 0 | 0.0 | 0.0 | 0.00 | 0.00 | 0.00 | 48 | 1007.5 |
| 20260504011706 | 10 | 0 | 0.0 | 0.0 | 0.00 | 0.00 | 0.00 | 48 | 1007.5 |
| 20260504011206 | 11 | 0 | 0.0 | 0.0 | 0.00 | 0.00 | 0.00 | 47 | 1007.4 |
| 20260504010706 | 11 | 0 | 0.0 | 0.0 | 0.00 | 0.00 | 0.00 | 47 | 1007.4 |
| 20260504010308 | 11 | 0 | 0.0 | 0.0 | 0.00 | 0.00 | 0.00 | 47 | 1007.4 |
| 20260504010206 | 11 | 0 | 0.0 | 0.0 | 0.00 | 0.00 | 0.00 | 46 | 1007.4 |
| 20260504005706 | 11 | 0 | 0.0 | 0.0 | 0.00 | 0.00 | 0.00 | 46 | 1007.3 |
| 20260504005206 | 11 | 0 | 0.0 | 0.0 | 0.00 | 0.00 | 0.00 | 46 | 1007.2 |
| 20260504004807 | 11 | 0 | 0.0 | 0.0 | 0.00 | 0.00 | 0.00 | 46 | 1007.2 |
| 20260504004706 | 11 | 0 | 0.0 | 0.0 | 0.00 | 0.00 | 0.00 | 46 | 1007.2 |
| 20260504004206 | 11 | 0 | 0.0 | 0.0 | 0.00 | 0.00 | 0.00 | 45 | 1007.2 |
| 20260504003706 | 11 | 0 | 0.0 | 0.0 | 0.00 | 0.00 | 0.00 | 45 | 1007.1 |
| 20260504003307 | 11 | 0 | 0.0 | 0.0 | 0.00 | 0.00 | 0.00 | 45 | 1007.0 |
| 20260504003206 | 11 | 0 | 0.0 | 0.0 | 0.00 | 0.00 | 0.00 | 45 | 1007.0 |
| 20260504002706 | 12 | 0 | 0.0 | 0.0 | 0.00 | 0.00 | 0.00 | 44 | 1006.9 |
| 20260504002206 | 12 | 0 | 0.0 | 0.0 | 0.00 | 0.00 | 0.00 | 44 | 1006.9 |
| 20260504001808 | 12 | 0 | 0.0 | 1.6 | 0.00 | 0.00 | 0.00 | 44 | 1006.9 |
| 20260504001706 | 12 | 0 | 0.0 | 1.6 | 0.00 | 0.00 | 0.00 | 44 | 1006.9 |
| 20260504001206 | 12 | 0 | 0.0 | 0.0 | 0.00 | 0.00 | 0.00 | 43 | 1006.9 |
| 20260504000706 | 12 | 0 | 0.0 | 0.0 | 0.00 | 0.00 | 0.00 | 43 | 1006.8 |
| 20260504000308 | 12 | 0 | 0.0 | 3.2 | 0.00 | 0.00 | 0.00 | 43 | 1006.8 |
| 20260504000206 | 12 | 0 | 0.0 | 3.2 | 0.00 | 0.00 | 0.00 | 43 | 1006.8 |
| 20260503235706 | 12 | 241 | 3.2 | 3.2 | 0.00 | 0.00 | 0.00 | 43 | 1006.6 |
| 20260503235206 | 12 | 0 | 0.0 | 0.0 | 0.00 | 0.00 | 0.00 | 42 | 1006.5 |
| 20260503234808 | 12 | 229 | 4.8 | 6.4 | 0.00 | 0.00 | 0.00 | 42 | 1006.4 |
| 20260503234706 | 12 | 0 | 0.0 | 0.0 | 0.00 | 0.00 | 0.00 | 42 | 1006.4 |
| 20260503234206 | 13 | 243 | 1.6 | 3.2 | 0.00 | 0.00 | 0.00 | 43 | 1006.4 |
| 20260503233706 | 13 | 0 | 0.0 | 0.0 | 0.00 | 0.00 | 0.00 | 41 | 1006.4 |
| 20260503233308 | 13 | 235 | 3.2 | 8.0 | 0.00 | 0.00 | 0.00 | 42 | 1006.4 |
| 20260503233206 | 13 | 209 | 1.6 | 8.0 | 0.00 | 0.00 | 0.00 | 42 | 1006.3 |
| 20260503232706 | 13 | 0 | 0.0 | 1.6 | 0.00 | 0.00 | 0.00 | 42 | 1006.3 |
| 20260503232206 | 13 | 0 | 0.0 | 0.0 | 0.00 | 0.00 | 0.00 | 42 | 1006.3 |
| 20260503231807 | 13 | 0 | 0.0 | 4.8 | 0.00 | 0.00 | 0.00 | 40 | 1006.2 |
| 20260503231706 | 13 | 0 | 0.0 | 1.6 | 0.00 | 0.00 | 0.00 | 41 | 1006.2 |
| 20260503231206 | 13 | 313 | 1.6 | 4.8 | 0.00 | 0.00 | 0.00 | 40 | 1006.3 |
| 20260503230706 | 13 | 195 | 3.2 | 17.7 | 0.00 | 0.00 | 0.00 | 40 | 1006.2 |
| 20260503230307 | 13 | 160 | 1.6 | 4.8 | 0.00 | 0.00 | 0.00 | 40 | 1006.4 |
| 20260503230206 | 13 | 0 | 0.0 | 4.8 | 0.00 | 0.00 | 0.00 | 40 | 1006.4 |
| 20260503225706 | 13 | 248 | 1.6 | 1.6 | 0.00 | 0.00 | 0.00 | 40 | 1006.2 |
| 20260503225206 | 13 | 232 | 4.8 | 8.0 | 0.00 | 0.00 | 0.00 | 38 | 1006.2 |
| 20260503224807 | 13 | 0 | 0.0 | 3.2 | 0.00 | 0.00 | 0.00 | 40 | 1006.2 |
| 20260503224706 | 13 | 0 | 0.0 | 3.2 | 0.00 | 0.00 | 0.00 | 40 | 1006.2 |
| 20260503224206 | 13 | 0 | 0.0 | 0.0 | 0.00 | 0.00 | 0.00 | 39 | 1006.2 |
| 20260503223706 | 13 | 0 | 0.0 | 1.6 | 0.00 | 0.00 | 0.00 | 39 | 1006.3 |
| 20260503223307 | 13 | 217 | 1.6 | 8.0 | 0.00 | 0.00 | 0.00 | 39 | 1006.2 |
| 20260503223206 | 13 | 0 | 0.0 | 8.0 | 0.00 | 0.00 | 0.00 | 39 | 1006.3 |
| 20260503222706 | 13 | 253 | 6.4 | 6.4 | 0.00 | 0.00 | 0.00 | 39 | 1006.4 |
| 20260503222206 | 13 | 107 | 1.6 | 6.4 | 0.00 | 0.00 | 0.00 | 39 | 1006.3 |
| 20260503221807 | 14 | 0 | 0.0 | 3.2 | 0.00 | 0.00 | 0.00 | 38 | 1006.4 |
| 20260503221706 | 13 | 0 | 0.0 | 3.2 | 0.00 | 0.00 | 0.00 | 38 | 1006.3 |
| 20260503221206 | 14 | 222 | 9.7 | 12.9 | 0.00 | 0.00 | 0.00 | 39 | 1006.4 |
| 20260503220706 | 14 | 0 | 0.0 | 4.8 | 0.00 | 0.00 | 0.00 | 38 | 1006.3 |
| 20260503220307 | 14 | 250 | 3.2 | 6.4 | 0.00 | 0.00 | 0.00 | 38 | 1006.4 |
| 20260503220206 | 14 | 0 | 0.0 | 6.4 | 0.00 | 0.00 | 0.00 | 38 | 1006.4 |
| 20260503215706 | 13 | 0 | 0.0 | 14.5 | 0.00 | 0.00 | 0.00 | 39 | 1006.4 |
| 20260503215206 | 13 | 240 | 12.9 | 12.9 | 0.00 | 0.00 | 0.00 | 39 | 1006.4 |
| 20260503214807 | 14 | 147 | 1.6 | 8.0 | 0.00 | 0.00 | 0.00 | 36 | 1006.4 |
| 20260503214706 | 14 | 0 | 0.0 | 8.0 | 0.00 | 0.00 | 0.00 | 37 | 1006.3 |
| 20260503214206 | 14 | 0 | 0.0 | 11.3 | 0.00 | 0.00 | 0.00 | 37 | 1006.2 |
| 20260503213706 | 14 | 257 | 3.2 | 6.4 | 0.00 | 0.00 | 0.00 | 37 | 1006.3 |
| 20260503213307 | 14 | 0 | 0.0 | 6.4 | 0.00 | 0.00 | 0.00 | 38 | 1006.4 |
| 20260503213206 | 14 | 147 | 3.2 | 6.4 | 0.00 | 0.00 | 0.00 | 37 | 1006.3 |
| 20260503212706 | 14 | 0 | 0.0 | 9.7 | 0.00 | 0.00 | 0.00 | 36 | 1006.2 |
| 20260503212206 | 14 | 0 | 0.0 | 6.4 | 0.00 | 0.00 | 0.00 | 37 | 1006.2 |
| 20260503211807 | 14 | 0 | 0.0 | 1.6 | 0.00 | 0.00 | 0.00 | 38 | 1006.2 |
| 20260503211706 | 14 | 274 | 1.6 | 1.6 | 0.00 | 0.00 | 0.00 | 36 | 1006.2 |
| 20260503211206 | 14 | 254 | 1.6 | 4.8 | 0.00 | 0.00 | 0.00 | 37 | 1006.1 |
| 20260503210706 | 14 | 0 | 0.0 | 4.8 | 0.00 | 0.00 | 0.00 | 36 | 1006.1 |
| 20260503210307 | 14 | 0 | 0.0 | 4.8 | 0.00 | 0.00 | 0.00 | 37 | 1006.2 |
| 20260503210206 | 14 | 0 | 0.0 | 4.8 | 0.00 | 0.00 | 0.00 | 36 | 1006.2 |
| 20260503205706 | 15 | 0 | 0.0 | 1.6 | 0.00 | 0.00 | 0.00 | 38 | 1006.0 |
| 20260503205206 | 14 | 0 | 0.0 | 4.8 | 0.00 | 0.00 | 0.00 | 36 | 1006.1 |
| 20260503204807 | 15 | 243 | 3.2 | 11.3 | 0.00 | 0.00 | 0.00 | 36 | 1006.0 |
| 20260503204706 | 15 | 0 | 0.0 | 9.7 | 0.00 | 0.00 | 0.00 | 37 | 1006.1 |
| 20260503204206 | 14 | 0 | 0.0 | 11.3 | 0.00 | 0.00 | 0.00 | 36 | 1006.2 |
| 20260503203706 | 14 | 0 | 0.0 | 9.7 | 0.00 | 0.00 | 0.00 | 38 | 1006.3 |
| 20260503203307 | 14 | 0 | 0.0 | 4.8 | 0.00 | 0.00 | 0.00 | 36 | 1006.3 |
| 20260503203206 | 14 | 89 | 4.8 | 4.8 | 0.00 | 0.00 | 0.00 | 36 | 1006.3 |
| 20260503202706 | 15 | 0 | 0.0 | 9.7 | 0.00 | 0.00 | 0.00 | 37 | 1006.4 |
| 20260503202206 | 15 | 265 | 6.4 | 11.3 | 0.00 | 0.00 | 0.00 | 37 | 1006.4 |
| 20260503201807 | 14 | 0 | 0.0 | 8.0 | 0.00 | 0.00 | 0.00 | 37 | 1006.2 |
| 20260503201706 | 14 | 262 | 3.2 | 8.0 | 0.00 | 0.00 | 0.00 | 37 | 1006.3 |
| 20260503201206 | 15 | 259 | 9.7 | 11.3 | 0.00 | 0.00 | 0.00 | 37 | 1006.4 |
| 20260503200706 | 15 | 291 | 3.2 | 3.2 | 0.00 | 0.00 | 0.00 | 39 | 1006.4 |
| 20260503200307 | 15 | 0 | 0.0 | 6.4 | 0.00 | 0.00 | 0.00 | 35 | 1006.4 |
| 20260503200206 | 15 | 0 | 0.0 | 6.4 | 0.00 | 0.00 | 0.00 | 37 | 1006.4 |
| 20260503195706 | 15 | 314 | 3.2 | 8.0 | 0.00 | 0.00 | 0.00 | 38 | 1006.4 |
| 20260503195206 | 15 | 0 | 0.0 | 12.9 | 0.00 | 0.00 | 0.00 | 38 | 1006.5 |
| 20260503194808 | 15 | 0 | 0.0 | 12.9 | 0.00 | 0.00 | 0.00 | 39 | 1006.3 |
| 20260503194706 | 15 | 111 | 11.3 | 11.3 | 0.00 | 0.00 | 0.00 | 36 | 1006.5 |
| 20260503194206 | 15 | 0 | 0.0 | 11.3 | 0.00 | 0.00 | 0.00 | 39 | 1006.5 |
| 20260503193706 | 14 | 0 | 0.0 | 11.3 | 0.00 | 0.00 | 0.00 | 37 | 1006.5 |
| 20260503193307 | 15 | 0 | 0.0 | 9.7 | 0.00 | 0.00 | 0.00 | 36 | 1006.5 |
| 20260503193206 | 14 | 0 | 0.0 | 9.7 | 0.00 | 0.00 | 0.00 | 39 | 1006.7 |
| 20260503192706 | 14 | 0 | 0.0 | 4.8 | 0.00 | 0.00 | 0.00 | 37 | 1006.8 |
| 20260503192206 | 15 | 304 | 1.6 | 6.4 | 0.00 | 0.00 | 0.00 | 37 | 1006.7 |
| 20260503191807 | 15 | 288 | 4.8 | 6.4 | 0.00 | 0.00 | 0.00 | 36 | 1007.0 |
| 20260503191706 | 15 | 0 | 0.0 | 6.4 | 0.00 | 0.00 | 0.00 | 38 | 1006.8 |
| 20260503191206 | 15 | 306 | 4.8 | 8.0 | 0.00 | 0.00 | 0.00 | 33 | 1006.9 |
| 20260503190706 | 15 | 0 | 0.0 | 4.8 | 0.00 | 0.00 | 0.00 | 35 | 1006.8 |
| 20260503190307 | 15 | 324 | 4.8 | 19.3 | 0.00 | 0.00 | 0.00 | 38 | 1006.8 |
| 20260503190206 | 15 | 19 | 1.6 | 19.3 | 0.00 | 0.00 | 0.00 | 39 | 1006.7 |
| 20260503185706 | 15 | 0 | 0.0 | 6.4 | 0.00 | 0.00 | 0.00 | 36 | 1006.8 |
| 20260503185206 | 15 | 269 | 1.6 | 12.9 | 0.00 | 0.00 | 0.00 | 37 | 1006.8 |
| 20260503184807 | 14 | 278 | 4.8 | 8.0 | 0.00 | 0.00 | 0.00 | 41 | 1006.8 |
| 20260503184706 | 15 | 117 | 1.6 | 8.0 | 0.00 | 0.00 | 0.00 | 39 | 1006.9 |
| 20260503184206 | 15 | 0 | 0.0 | 11.3 | 0.00 | 0.00 | 0.00 | 38 | 1006.9 |
| 20260503183706 | 15 | 289 | 4.8 | 8.0 | 0.00 | 0.00 | 0.00 | 41 | 1007.0 |
| 20260503183307 | 15 | 0 | 0.0 | 11.3 | 0.00 | 0.00 | 0.00 | 39 | 1007.0 |
| 20260503183206 | 15 | 278 | 1.6 | 11.3 | 0.00 | 0.00 | 0.00 | 38 | 1007.2 |
| 20260503182706 | 14 | 16 | 1.6 | 4.8 | 0.00 | 0.00 | 0.00 | 35 | 1007.1 |
| 20260503182206 | 15 | 0 | 0.0 | 4.8 | 0.00 | 0.00 | 0.00 | 41 | 1007.0 |
| 20260503181807 | 15 | 63 | 4.8 | 11.3 | 0.00 | 0.00 | 0.00 | 43 | 1007.0 |
| 20260503181706 | 15 | 84 | 1.6 | 11.3 | 0.00 | 0.00 | 0.00 | 41 | 1007.1 |
| 20260503181206 | 13 | 121 | 3.2 | 6.4 | 0.00 | 0.00 | 0.00 | 38 | 1007.2 |
| 20260503180706 | 13 | 132 | 11.3 | 11.3 | 0.00 | 0.00 | 0.00 | 39 | 1007.2 |
| 20260503180308 | 14 | 0 | 0.0 | 17.7 | 0.00 | 0.00 | 0.00 | 37 | 1007.2 |
| 20260503180207 | 14 | 342 | 3.2 | 17.7 | 0.00 | 0.00 | 0.00 | 38 | 1007.2 |
| 20260503175707 | 13 | 53 | 6.4 | 6.4 | 0.00 | 0.00 | 0.00 | 43 | 1007.2 |
| 20260503175207 | 13 | 238 | 1.6 | 3.2 | 0.00 | 0.00 | 0.00 | 41 | 1007.1 |
| 20260503174808 | 13 | 36 | 4.8 | 11.3 | 0.00 | 0.00 | 0.00 | 37 | 1007.0 |
| 20260503174707 | 13 | 164 | 3.2 | 11.3 | 0.00 | 0.00 | 0.00 | 39 | 1007.2 |
| 20260503174207 | 13 | 311 | 3.2 | 6.4 | 0.00 | 0.00 | 0.00 | 38 | 1007.3 |
| 20260503173707 | 13 | 0 | 0.0 | 4.8 | 0.00 | 0.00 | 0.00 | 38 | 1007.3 |
| 20260503173308 | 13 | 5 | 1.6 | 14.5 | 0.00 | 0.00 | 0.00 | 38 | 1007.4 |
| 20260503173207 | 13 | 12 | 14.5 | 14.5 | 0.00 | 0.00 | 0.00 | 38 | 1007.3 |
| 20260503172707 | 13 | 279 | 1.6 | 11.3 | 0.00 | 0.00 | 0.00 | 37 | 1007.4 |
| 20260503172207 | 13 | 0 | 0.0 | 12.9 | 0.00 | 0.00 | 0.00 | 47 | 1007.4 |
| 20260503171808 | 13 | 260 | 3.2 | 11.3 | 0.00 | 0.00 | 0.00 | 39 | 1007.4 |
| 20260503171707 | 13 | 194 | 4.8 | 11.3 | 0.00 | 0.00 | 0.00 | 40 | 1007.3 |
| 20260503171207 | 12 | 313 | 1.6 | 11.3 | 0.00 | 0.00 | 0.00 | 40 | 1007.6 |
| 20260503170707 | 12 | 0 | 0.0 | 4.8 | 0.00 | 0.00 | 0.00 | 40 | 1007.6 |
| 20260503170308 | 12 | 0 | 0.0 | 11.3 | 0.00 | 0.00 | 0.00 | 41 | 1007.5 |
| 20260503170207 | 12 | 83 | 4.8 | 11.3 | 0.00 | 0.00 | 0.00 | 43 | 1007.6 |
| 20260503160207 | 11 | 0 | 0.0 | 3.2 | 0.00 | 0.00 | 0.00 | 46 | 1008.0 |
| 20260503150706 | 11 | 0 | 0.0 | 9.7 | 0.00 | 0.00 | 0.00 | 49 | 1008.2 |
| 20260503150308 | 11 | 334 | 1.6 | 6.4 | 0.00 | 0.00 | 0.00 | 49 | 1008.2 |
| 20260503150206 | 11 | 70 | 1.6 | 6.4 | 0.00 | 0.00 | 0.00 | 51 | 1008.2 |
| 20260503140308 | 10 | 349 | 3.2 | 6.4 | 0.00 | 0.00 | 0.00 | 53 | 1008.1 |
| 20260503140206 | 10 | 315 | 3.2 | 6.4 | 0.00 | 0.00 | 0.00 | 53 | 1008.2 |